Find Starlink 30442

NORAD ID: 57868 Int'l Des: 2023-144 Owner: SPXS Country: US Constellation: starlink operational
LEOCIRCULAR

リアルタイム位置

3D地球を読み込み中...

Starlink 30442について

説明を読み込み中...

次回通過

Passes for default location (London). Set your location on the main map for personalized predictions.

高度履歴

Loading altitude history...

軌道要素

1 57868U 23144E 26125.94355769 -.00000343 00000-0 -29467-5 0 9997
2 57868 43.0040 321.8225 0001148 263.9872 96.0849 15.27598975146354
Epoch: May 5, 2026 • Age: 5 hours

現在のステータス

高度 483.1 km
速度 7.63 km/s
衛星直下点 22.46°N, 70.32°E
打ち上げ日 Sep 16, 2023
運用期間 2.6 years
タイプ internet

技術仕様

分類 Payload
質量 730.00 kg
乾燥質量 700.00 kg
総質量 730.00 kg
長さ 0.30 m
直径 4.10 m
スパン 29.00 m
形状 Box + pan
製造者 SPXS
バスタイプ Starlink V2M
フェーズステータス In Orbit
所有者/国 SPXS/US

Most Searched